Location: Home
(42.5358°N, 72.7383°W)
Time: 07:03:53
(UTC-04:00)

COSMOS 2251 DEB - Pass Details

Date: 27 June 2022
Orbit: 769 x 1233 km, 74.1° (Epoch: 15 August)

Event Time Altitude Azimuth Distance (km) Brightness Sun altitude
Exits shadow 01:20:03 - 114° (ESE) 2,613 ? -23.9°
Reaches altitude 10° 01:20:26 10° 111° (ESE) 2,563 ? -23.9°
Maximum altitude 01:22:39 12° 88° (E) 2,460 ? -23.8°
Drops below altitude 10° 01:24:58 10° 66° (ENE) 2,687 ? -23.8°
Sets 01:29:23 0° 39° (NE) 3,761 ? -23.6°
